Location: Anumalkud?ru
(16.4847°N, 80.6636°E)
Time: 15:25:26
(UTC+00:00)

CENTAUR R/B - Pass Details

Date: 11 April 2026
Orbit: 623 x 1557 km, 63.4° (Epoch: 11 May)

Event Time Altitude Azimuth Distance (km) Brightness Sun altitude
Rises 13:52:27 0° 343° (NNW) 4,514 6.4 -15.0°
Reaches altitude 10° 13:55:26 10° 348° (NNW) 3,616 5.8 -15.7°
Maximum altitude 14:04:26 54° 64° (ENE) 1,838 3.6 -17.8°
Enters shadow 14:10:34 23° 130° (SE) 2,827 4.4 -19.2°
